NPV1459 PHNL-PKMJ

Flight info

Callsign NPV1459
Flight time 4h 49m
Altitude 38000
Route OPIHI3 CHOKO R584 MANRE/N0488F400 R584 MAZZA 10N177E EFAHU
Aircraft A359/H-SDE2E3GHIJ3J4J5LM1ORWXY/LB1D1

Departure

Time 2026-04-17 09:29
Airport Daniel K. Inouye International Airport (PHNL)

Arrival

Time 2026-04-17 14:19
Airport Marshall Islands International Airport (PKMJ)
Time Latitude Longitude Altitude Speed Heading
2026-04-17 09:17 21.32761 -157.92751 29 ft 0 kts 72°
2026-04-17 09:22 21.32765 -157.92738 27 ft 6 kts 74°
2026-04-17 09:22 21.32771 -157.92691 28 ft 7 kts 85°
2026-04-17 09:22 21.32771 -157.92634 30 ft 9 kts 90°
2026-04-17 09:23 21.32772 -157.92564 30 ft 10 kts 90°
2026-04-17 09:23 21.32772 -157.92481 30 ft 12 kts 90°
2026-04-17 09:23 21.32754 -157.92394 30 ft 12 kts 129°
2026-04-17 09:23 21.32684 -157.92335 30 ft 13 kts 143°
2026-04-17 09:24 21.32619 -157.92295 30 ft 11 kts 149°
2026-04-17 09:24 21.32546 -157.92249 30 ft 13 kts 149°
2026-04-17 09:24 21.32465 -157.92197 30 ft 14 kts 149°
2026-04-17 09:24 21.32374 -157.92143 30 ft 16 kts 150°
2026-04-17 09:25 21.32275 -157.92083 30 ft 17 kts 150°
2026-04-17 09:25 21.32168 -157.92019 30 ft 18 kts 150°
2026-04-17 09:25 21.32054 -157.91950 30 ft 19 kts 150°
2026-04-17 09:25 21.31937 -157.91873 30 ft 20 kts 148°
2026-04-17 09:26 21.31814 -157.91845 30 ft 18 kts 216°
2026-04-17 09:26 21.31728 -157.91947 30 ft 19 kts 231°
2026-04-17 09:26 21.31644 -157.92058 30 ft 20 kts 231°
2026-04-17 09:26 21.31561 -157.92180 30 ft 21 kts 234°
2026-04-17 09:27 21.31475 -157.92308 30 ft 21 kts 232°
2026-04-17 09:27 21.31382 -157.92437 30 ft 22 kts 232°
2026-04-17 09:27 21.31297 -157.92565 30 ft 16 kts 248°
2026-04-17 09:27 21.31332 -157.92643 30 ft 12 kts 319°
2026-04-17 09:28 21.31399 -157.92686 30 ft 7 kts
2026-04-17 09:28 21.31419 -157.92668 30 ft 4 kts 44°
2026-04-17 09:28 21.31453 -157.92631 30 ft 12 kts 51°
2026-04-17 09:28 21.31538 -157.92512 30 ft 36 kts 51°
2026-04-17 09:29 21.31830 -157.92094 30 ft 102 kts 53°
2026-04-17 09:29 21.32381 -157.91319 31 ft 157 kts 53°
2026-04-17 09:29 21.33043 -157.90381 706 ft 148 kts 52°
2026-04-17 09:29 21.33662 -157.89499 1361 ft 148 kts 50°
2026-04-17 09:30 21.34294 -157.88649 1856 ft 142 kts 51°
2026-04-17 09:30 21.34959 -157.87832 2112 ft 154 kts 48°
2026-04-17 09:30 21.35694 -157.86905 2303 ft 170 kts 51°
2026-04-17 09:30 21.36453 -157.85882 2580 ft 180 kts 53°
2026-04-17 09:31 21.37201 -157.84746 2822 ft 195 kts 59°
2026-04-17 09:31 21.37653 -157.83320 2991 ft 211 kts 86°
2026-04-17 09:31 21.37280 -157.81775 3298 ft 231 kts 120°
2026-04-17 09:31 21.35968 -157.80704 3610 ft 253 kts 159°
2026-04-17 09:32 21.34171 -157.80756 3993 ft 270 kts 200°
2026-04-17 09:32 21.32610 -157.81896 4537 ft 275 kts 222°
2026-04-17 09:32 21.31106 -157.83184 4969 ft 280 kts 211°
2026-04-17 09:32 21.29458 -157.84320 5440 ft 284 kts 214°
2026-04-17 09:33 21.27914 -157.85634 6066 ft 283 kts 219°
2026-04-17 09:33 21.26421 -157.87018 6656 ft 283 kts 220°
2026-04-17 09:33 21.24948 -157.88403 7280 ft 280 kts 218°
2026-04-17 09:33 21.23439 -157.89758 7727 ft 286 kts 219°
2026-04-17 09:34 21.21940 -157.91143 8196 ft 290 kts 220°
2026-04-17 09:34 21.20381 -157.92511 8803 ft 288 kts 215°
2026-04-17 09:34 21.18743 -157.93742 9434 ft 286 kts 214°
2026-04-17 09:34 21.17099 -157.94942 10048 ft 285 kts 214°
2026-04-17 09:35 21.15432 -157.96153 10387 ft 295 kts 214°
2026-04-17 09:35 21.13697 -157.97412 10609 ft 307 kts 214°
2026-04-17 09:35 21.11896 -157.98720 10852 ft 319 kts 214°
2026-04-17 09:35 21.10146 -158.00248 11023 ft 331 kts 227°
2026-04-17 09:36 21.09245 -158.01579 11130 ft 338 kts 241°
2026-04-17 09:36 21.08311 -158.03928 11349 ft 348 kts 249°
2026-04-17 09:36 21.07489 -158.06405 11543 ft 358 kts 250°
2026-04-17 09:36 21.06649 -158.08950 11788 ft 365 kts 250°
2026-04-17 09:37 21.05879 -158.11541 12209 ft 366 kts 256°
2026-04-17 09:37 21.05478 -158.14248 12537 ft 371 kts 263°
2026-04-17 09:37 21.05236 -158.16996 12920 ft 372 kts 264°
2026-04-17 09:37 21.05010 -158.19719 13356 ft 372 kts 264°
2026-04-17 09:38 21.04773 -158.22522 13699 ft 375 kts 264°
2026-04-17 09:38 21.04534 -158.25282 14029 ft 378 kts 264°
2026-04-17 09:38 21.04287 -158.28094 14361 ft 380 kts 264°
2026-04-17 09:38 21.04038 -158.30917 14709 ft 381 kts 264°
2026-04-17 09:39 21.03787 -158.33743 15080 ft 382 kts 264°
2026-04-17 09:39 21.03535 -158.36579 15437 ft 383 kts 264°
2026-04-17 09:39 21.03281 -158.39420 15796 ft 385 kts 264°
2026-04-17 09:39 21.03026 -158.42275 16160 ft 386 kts 264°
2026-04-17 09:40 21.02769 -158.45138 16512 ft 387 kts 264°
2026-04-17 09:40 21.02511 -158.48016 16847 ft 389 kts 263°
2026-04-17 09:40 21.02250 -158.50910 17194 ft 391 kts 263°
2026-04-17 09:40 21.01989 -158.53809 17552 ft 392 kts 263°
2026-04-17 09:41 21.01725 -158.56725 17907 ft 393 kts 263°
2026-04-17 09:41 21.01461 -158.59646 18247 ft 395 kts 263°
2026-04-17 09:41 21.01195 -158.62575 18552 ft 396 kts 263°
2026-04-17 09:41 21.00927 -158.65518 18844 ft 398 kts 263°
2026-04-17 09:42 21.00658 -158.68475 19121 ft 399 kts 263°
2026-04-17 09:42 21.00391 -158.71404 19397 ft 401 kts 263°
2026-04-17 09:42 21.00119 -158.74381 19674 ft 402 kts 263°
2026-04-17 09:42 20.99845 -158.77368 19962 ft 404 kts 263°
2026-04-17 09:43 20.99570 -158.80361 20235 ft 405 kts 263°
2026-04-17 09:43 20.99293 -158.83372 20507 ft 406 kts 263°
2026-04-17 09:43 20.99015 -158.86390 20774 ft 408 kts 263°
2026-04-17 09:43 20.98736 -158.89422 21066 ft 409 kts 263°
2026-04-17 09:44 20.98455 -158.92454 21335 ft 410 kts 263°
2026-04-17 09:44 20.98173 -158.95496 21586 ft 411 kts 263°
2026-04-17 09:44 20.97871 -158.98544 21842 ft 412 kts 261°
2026-04-17 09:44 20.97323 -159.01517 22079 ft 412 kts 253°
2026-04-17 09:45 20.96474 -159.04452 22339 ft 413 kts 251°
2026-04-17 09:45 20.95559 -159.07368 22588 ft 414 kts 250°
2026-04-17 09:45 20.94632 -159.10302 22841 ft 416 kts 250°
2026-04-17 09:45 20.93704 -159.13247 23097 ft 417 kts 250°
2026-04-17 09:46 20.92777 -159.16193 23318 ft 419 kts 250°
2026-04-17 09:46 20.91848 -159.19148 23561 ft 420 kts 250°
2026-04-17 09:46 20.90915 -159.22117 23809 ft 421 kts 250°
2026-04-17 09:46 20.89994 -159.25047 24021 ft 421 kts 250°
2026-04-17 09:47 20.89058 -159.28021 24226 ft 422 kts 250°
2026-04-17 09:47 20.88118 -159.31010 24446 ft 423 kts 250°
2026-04-17 09:47 20.87181 -159.33986 24635 ft 424 kts 250°
2026-04-17 09:47 20.86239 -159.36974 24849 ft 424 kts 250°
2026-04-17 09:48 20.85296 -159.39966 25052 ft 425 kts 250°
2026-04-17 09:48 20.84349 -159.42967 25255 ft 426 kts 250°
2026-04-17 09:48 20.83398 -159.45979 25458 ft 426 kts 250°
2026-04-17 09:48 20.82450 -159.48980 25661 ft 427 kts 250°
2026-04-17 09:49 20.81498 -159.51991 25862 ft 428 kts 250°
2026-04-17 09:49 20.80555 -159.54972 26093 ft 428 kts 250°
2026-04-17 09:49 20.79596 -159.58001 26315 ft 429 kts 250°
2026-04-17 09:49 20.78640 -159.61020 26518 ft 430 kts 250°
2026-04-17 09:50 20.77684 -159.64049 26725 ft 430 kts 250°
2026-04-17 09:50 20.76722 -159.67086 26931 ft 431 kts 250°
2026-04-17 09:50 20.75756 -159.70123 27139 ft 432 kts 250°
2026-04-17 09:50 20.74789 -159.73165 27345 ft 433 kts 250°
2026-04-17 09:51 20.73818 -159.76215 27549 ft 434 kts 250°
2026-04-17 09:51 20.72855 -159.79242 27754 ft 435 kts 250°
2026-04-17 09:51 20.71882 -159.82299 27970 ft 436 kts 250°
2026-04-17 09:51 20.70904 -159.85369 28185 ft 437 kts 250°
2026-04-17 09:52 20.69925 -159.88440 28437 ft 437 kts 250°
2026-04-17 09:52 20.68945 -159.91513 28685 ft 437 kts 250°
2026-04-17 09:52 20.67963 -159.94590 28904 ft 438 kts 250°
2026-04-17 09:52 20.66975 -159.97683 29097 ft 440 kts 250°
2026-04-17 09:53 20.65988 -160.00774 29302 ft 441 kts 250°
2026-04-17 09:53 20.64998 -160.03869 29488 ft 442 kts 250°
2026-04-17 09:53 20.64002 -160.06982 29710 ft 443 kts 250°
2026-04-17 09:53 20.63004 -160.10096 29919 ft 444 kts 250°
2026-04-17 09:54 20.62003 -160.13222 30109 ft 445 kts 250°
2026-04-17 09:54 20.60996 -160.16361 30245 ft 447 kts 250°
2026-04-17 09:54 20.59987 -160.19507 30423 ft 448 kts 250°
2026-04-17 09:54 20.58977 -160.22652 30636 ft 448 kts 249°
2026-04-17 09:55 20.57980 -160.25754 30844 ft 448 kts 249°
2026-04-17 09:55 20.56965 -160.28910 31030 ft 449 kts 249°
2026-04-17 09:55 20.55951 -160.32061 31199 ft 449 kts 249°
2026-04-17 09:55 20.54935 -160.35216 31386 ft 450 kts 249°
2026-04-17 09:56 20.53916 -160.38380 31605 ft 449 kts 249°
2026-04-17 09:56 20.52903 -160.41521 31893 ft 447 kts 249°
2026-04-17 09:56 20.51894 -160.44649 32179 ft 445 kts 249°
2026-04-17 09:56 20.50887 -160.47769 32442 ft 444 kts 249°
2026-04-17 09:57 20.49883 -160.50876 32715 ft 442 kts 249°
2026-04-17 09:57 20.48883 -160.53969 32989 ft 440 kts 248°
2026-04-17 09:57 20.47886 -160.57053 33312 ft 438 kts 248°
2026-04-17 09:57 20.46894 -160.60117 33623 ft 436 kts 248°
2026-04-17 09:58 20.45905 -160.63170 33923 ft 435 kts 248°
2026-04-17 09:58 20.44919 -160.66211 34200 ft 433 kts 248°
2026-04-17 09:58 20.43947 -160.69206 34406 ft 433 kts 248°
2026-04-17 09:58 20.42961 -160.72242 34583 ft 433 kts 248°
2026-04-17 09:59 20.41976 -160.75275 34773 ft 433 kts 248°
2026-04-17 09:59 20.40991 -160.78305 34969 ft 433 kts 248°
2026-04-17 09:59 20.40003 -160.81348 35163 ft 432 kts 248°
2026-04-17 09:59 20.39017 -160.84375 35357 ft 432 kts 248°
2026-04-17 10:00 20.38029 -160.87406 35529 ft 432 kts 248°
2026-04-17 10:00 20.37028 -160.90424 35709 ft 432 kts 247°
2026-04-17 10:00 20.35920 -160.93402 35887 ft 432 kts 245°
2026-04-17 10:00 20.34747 -160.96347 36079 ft 431 kts 245°
2026-04-17 10:01 20.33553 -160.99283 36258 ft 431 kts 245°
2026-04-17 10:01 20.32362 -161.02223 36454 ft 431 kts 245°
2026-04-17 10:01 20.31184 -161.05162 36627 ft 431 kts 245°
2026-04-17 10:01 20.30016 -161.08107 36820 ft 431 kts 245°
2026-04-17 10:02 20.28859 -161.11052 36993 ft 431 kts 246°
2026-04-17 10:02 20.27720 -161.13961 37179 ft 431 kts 246°
2026-04-17 10:02 20.26566 -161.16915 37348 ft 431 kts 246°
2026-04-17 10:02 20.25416 -161.19858 37526 ft 431 kts 246°
2026-04-17 10:03 20.24264 -161.22805 37706 ft 431 kts 246°
2026-04-17 10:03 20.23109 -161.25754 37891 ft 430 kts 246°
2026-04-17 10:03 20.21955 -161.28700 38050 ft 430 kts 246°
2026-04-17 10:03 20.20798 -161.31648 38106 ft 433 kts 246°
2026-04-17 10:04 20.18490 -161.37527 38103 ft 433 kts 246°
2026-04-17 10:04 20.16168 -161.43436 38107 ft 433 kts 246°
2026-04-17 10:05 20.13842 -161.49344 38106 ft 433 kts 246°
2026-04-17 10:05 20.11510 -161.55264 38119 ft 433 kts 246°
2026-04-17 10:06 20.09176 -161.61180 38105 ft 434 kts 246°
2026-04-17 10:06 20.06840 -161.67097 38107 ft 434 kts 246°
2026-04-17 10:07 20.04499 -161.73019 38114 ft 434 kts 246°
2026-04-17 10:07 20.02158 -161.78935 38103 ft 434 kts 246°
2026-04-17 10:08 19.99831 -161.84807 38114 ft 434 kts 246°
2026-04-17 10:08 19.97487 -161.90715 38111 ft 434 kts 246°
2026-04-17 10:09 19.95140 -161.96625 38108 ft 433 kts 246°
2026-04-17 10:09 19.92795 -162.02524 38107 ft 433 kts 246°
2026-04-17 10:10 19.90448 -162.08421 38104 ft 433 kts 246°
2026-04-17 10:11 19.86925 -162.17263 38102 ft 434 kts 246°
2026-04-17 10:11 19.84563 -162.23179 38099 ft 435 kts 246°
2026-04-17 10:12 19.82216 -162.29050 38100 ft 434 kts 246°
2026-04-17 10:12 19.79840 -162.34990 38101 ft 434 kts 246°
2026-04-17 10:13 19.77492 -162.40854 38104 ft 434 kts 246°
2026-04-17 10:13 19.75127 -162.46754 38097 ft 434 kts 246°
2026-04-17 10:14 19.72759 -162.52654 38108 ft 434 kts 246°
2026-04-17 10:14 19.70391 -162.58546 38101 ft 434 kts 246°
2026-04-17 10:15 19.68018 -162.64446 38100 ft 433 kts 246°
2026-04-17 10:15 19.65669 -162.70282 38102 ft 432 kts 246°
2026-04-17 10:16 19.63337 -162.76205 38098 ft 433 kts 247°
2026-04-17 10:16 19.61066 -162.82075 38095 ft 434 kts 247°
2026-04-17 10:17 19.58766 -162.88000 38094 ft 434 kts 247°
2026-04-17 10:17 19.56458 -162.93919 38099 ft 434 kts 247°
2026-04-17 10:18 19.54144 -162.99836 38095 ft 433 kts 246°
2026-04-17 10:18 19.51836 -163.05731 38094 ft 433 kts 246°
2026-04-17 10:19 19.49525 -163.11628 38098 ft 433 kts 246°
2026-04-17 10:19 19.47213 -163.17524 38101 ft 433 kts 246°
2026-04-17 10:20 19.44897 -163.23420 38090 ft 433 kts 246°
2026-04-17 10:20 19.42595 -163.29274 38098 ft 433 kts 246°
2026-04-17 10:21 19.40282 -163.35152 38089 ft 432 kts 246°
2026-04-17 10:21 19.37962 -163.41040 38090 ft 432 kts 246°
2026-04-17 10:22 19.35645 -163.46913 38081 ft 432 kts 246°
2026-04-17 10:22 19.33321 -163.52800 38093 ft 434 kts 246°
2026-04-17 10:23 19.31385 -163.57697 38091 ft 434 kts 246°
2026-04-17 10:23 19.29052 -163.63593 38094 ft 434 kts 246°
2026-04-17 10:24 19.26341 -163.70437 38088 ft 433 kts 246°
2026-04-17 10:24 19.24401 -163.75329 38084 ft 433 kts 246°
2026-04-17 10:25 19.22065 -163.81213 38084 ft 433 kts 246°
2026-04-17 10:25 19.19729 -163.87092 38091 ft 433 kts 246°
2026-04-17 10:26 19.17394 -163.92961 38086 ft 433 kts 246°
2026-04-17 10:26 19.15056 -163.98832 38085 ft 433 kts 246°
2026-04-17 10:27 19.12732 -164.04661 38090 ft 433 kts 246°
2026-04-17 10:27 19.10389 -164.10530 38082 ft 432 kts 246°
2026-04-17 10:28 19.08045 -164.16396 38074 ft 434 kts 246°
2026-04-17 10:28 19.05692 -164.22279 38074 ft 434 kts 246°
2026-04-17 10:29 19.03339 -164.28157 38080 ft 434 kts 246°
2026-04-17 10:29 19.00998 -164.33995 38082 ft 434 kts 246°
2026-04-17 10:30 18.98638 -164.39878 38073 ft 433 kts 246°
2026-04-17 10:30 18.96287 -164.45732 38078 ft 433 kts 246°
2026-04-17 10:31 18.93931 -164.51589 38081 ft 433 kts 246°
2026-04-17 10:31 18.91570 -164.57454 38077 ft 433 kts 246°
2026-04-17 10:32 18.89209 -164.63314 38077 ft 433 kts 246°
2026-04-17 10:32 18.86861 -164.69132 38078 ft 433 kts 246°
2026-04-17 10:33 18.84499 -164.74983 38072 ft 433 kts 246°
2026-04-17 10:33 18.82134 -164.80832 38061 ft 433 kts 246°
2026-04-17 10:34 18.79756 -164.86707 38075 ft 435 kts 246°
2026-04-17 10:34 18.77375 -164.92585 38074 ft 435 kts 246°
2026-04-17 10:35 18.74991 -164.98464 38075 ft 435 kts 246°
2026-04-17 10:35 18.72603 -165.04345 38075 ft 435 kts 246°
2026-04-17 10:36 18.70235 -165.10178 38080 ft 436 kts 246°
2026-04-17 10:36 18.67841 -165.16062 38072 ft 437 kts 246°
2026-04-17 10:37 18.65443 -165.21948 38072 ft 437 kts 246°
2026-04-17 10:37 18.63043 -165.27835 38070 ft 437 kts 246°
2026-04-17 10:38 18.60640 -165.33721 38072 ft 437 kts 246°
2026-04-17 10:38 18.58236 -165.39608 38074 ft 437 kts 246°
2026-04-17 10:39 18.55831 -165.45487 38079 ft 436 kts 246°
2026-04-17 10:39 18.53428 -165.51357 38068 ft 437 kts 246°
2026-04-17 10:40 18.51018 -165.57238 38070 ft 437 kts 246°
2026-04-17 10:40 18.48621 -165.63082 38070 ft 437 kts 246°
2026-04-17 10:41 18.46206 -165.68962 38070 ft 437 kts 246°
2026-04-17 10:41 18.43790 -165.74841 38076 ft 437 kts 246°
2026-04-17 10:42 18.41371 -165.80719 38074 ft 437 kts 246°
2026-04-17 10:42 18.38958 -165.86578 38075 ft 436 kts 246°
2026-04-17 10:43 18.36544 -165.92430 38069 ft 436 kts 246°
2026-04-17 10:43 18.34126 -165.98288 38070 ft 436 kts 246°
2026-04-17 10:44 18.31725 -166.04100 38075 ft 436 kts 246°
2026-04-17 10:44 18.29305 -166.09951 38072 ft 435 kts 246°
2026-04-17 10:45 18.26885 -166.15797 38076 ft 435 kts 246°
2026-04-17 10:45 18.24463 -166.21641 38076 ft 435 kts 246°
2026-04-17 10:46 18.22043 -166.27475 38072 ft 435 kts 246°
2026-04-17 10:46 18.19617 -166.33315 38071 ft 435 kts 246°
2026-04-17 10:47 18.17191 -166.39151 38072 ft 435 kts 246°
2026-04-17 10:47 18.14778 -166.44951 38070 ft 435 kts 246°
2026-04-17 10:48 18.12348 -166.50784 38083 ft 435 kts 245°
2026-04-17 10:48 18.09918 -166.56613 38072 ft 435 kts 245°
2026-04-17 10:49 18.07484 -166.62446 38070 ft 435 kts 245°
2026-04-17 10:49 18.05049 -166.68275 38070 ft 435 kts 245°
2026-04-17 10:50 18.02615 -166.74095 38068 ft 435 kts 245°
2026-04-17 10:50 18.00187 -166.79894 38069 ft 435 kts 245°
2026-04-17 10:51 17.97751 -166.85708 38060 ft 435 kts 245°
2026-04-17 10:51 17.95308 -166.91531 38068 ft 436 kts 246°
2026-04-17 10:52 17.92863 -166.97357 38066 ft 436 kts 245°
2026-04-17 10:52 17.90413 -167.03187 38063 ft 436 kts 245°
2026-04-17 10:53 17.87961 -167.09015 38065 ft 436 kts 245°
2026-04-17 10:53 17.85510 -167.14836 38064 ft 436 kts 245°
2026-04-17 10:54 17.83069 -167.20626 38064 ft 436 kts 245°
2026-04-17 10:54 17.80611 -167.26452 38065 ft 436 kts 245°
2026-04-17 10:55 17.78150 -167.32279 38061 ft 437 kts 245°
2026-04-17 10:55 17.75684 -167.38115 38060 ft 437 kts 245°
2026-04-17 10:56 17.73218 -167.43943 38058 ft 437 kts 245°
2026-04-17 10:56 17.70761 -167.49743 38061 ft 437 kts 245°
2026-04-17 10:57 17.68287 -167.55579 38057 ft 437 kts 246°
2026-04-17 10:57 17.65815 -167.61403 38068 ft 437 kts 246°
2026-04-17 10:58 17.63333 -167.67244 38065 ft 438 kts 246°
2026-04-17 10:58 17.60862 -167.73058 38059 ft 438 kts 246°
2026-04-17 10:59 17.58379 -167.78892 38061 ft 438 kts 246°
2026-04-17 10:59 17.55895 -167.84722 38057 ft 438 kts 246°
2026-04-17 11:00 17.53406 -167.90560 38058 ft 438 kts 246°
2026-04-17 11:00 17.50920 -167.96384 38064 ft 438 kts 246°
2026-04-17 11:01 17.48425 -168.02221 38060 ft 440 kts 246°
2026-04-17 11:01 17.45921 -168.08077 38058 ft 440 kts 246°
2026-04-17 11:02 17.43411 -168.13941 38057 ft 440 kts 246°
2026-04-17 11:02 17.40902 -168.19797 38055 ft 440 kts 246°
2026-04-17 11:03 17.38408 -168.25612 38043 ft 440 kts 246°
2026-04-17 11:03 17.35907 -168.31438 38053 ft 438 kts 246°
2026-04-17 11:04 17.33406 -168.37259 38057 ft 438 kts 246°
2026-04-17 11:04 17.30899 -168.43087 38053 ft 438 kts 245°
2026-04-17 11:05 17.28396 -168.48902 38050 ft 438 kts 245°
2026-04-17 11:05 17.25890 -168.54718 38051 ft 438 kts 245°
2026-04-17 11:06 17.23379 -168.60538 38043 ft 438 kts 245°
2026-04-17 11:06 17.20870 -168.66351 38040 ft 438 kts 245°
2026-04-17 11:07 17.18370 -168.72136 38050 ft 440 kts 245°
2026-04-17 11:07 17.15842 -168.77980 38049 ft 442 kts 245°
2026-04-17 11:08 17.13308 -168.83832 38042 ft 442 kts 245°
2026-04-17 11:08 17.10769 -168.89691 38043 ft 442 kts 245°
2026-04-17 11:09 17.08233 -168.95537 38039 ft 441 kts 246°
2026-04-17 11:09 17.06129 -169.00384 38039 ft 440 kts 246°
2026-04-17 11:10 17.02328 -169.09132 38046 ft 441 kts 246°
2026-04-17 11:10 16.99781 -169.14986 38037 ft 443 kts 246°
2026-04-17 11:11 16.97226 -169.20852 38045 ft 443 kts 246°
2026-04-17 11:11 16.94683 -169.26685 38035 ft 443 kts 246°
2026-04-17 11:12 16.92126 -169.32547 38039 ft 443 kts 246°
2026-04-17 11:12 16.89566 -169.38409 38039 ft 443 kts 246°
2026-04-17 11:13 16.87006 -169.44264 38041 ft 444 kts 246°
2026-04-17 11:13 16.84428 -169.50156 38043 ft 446 kts 246°
2026-04-17 11:14 16.81867 -169.56005 38035 ft 446 kts 246°
2026-04-17 11:14 16.79285 -169.61896 38047 ft 446 kts 246°
2026-04-17 11:15 16.76706 -169.67776 38045 ft 444 kts 246°
2026-04-17 11:15 16.74134 -169.73632 38042 ft 444 kts 246°
2026-04-17 11:16 16.71561 -169.79485 38025 ft 443 kts 246°
2026-04-17 11:16 16.68982 -169.85347 38029 ft 446 kts 246°
2026-04-17 11:17 16.66387 -169.91241 38039 ft 447 kts 246°
2026-04-17 11:17 16.63805 -169.97100 38036 ft 447 kts 246°
2026-04-17 11:18 16.61203 -170.02998 38046 ft 447 kts 246°
2026-04-17 11:18 16.58603 -170.08887 38046 ft 447 kts 246°
2026-04-17 11:19 16.55997 -170.14783 38040 ft 447 kts 246°
2026-04-17 11:19 16.53388 -170.20679 38036 ft 449 kts 246°
2026-04-17 11:20 16.50775 -170.26582 38032 ft 449 kts 246°
2026-04-17 11:20 16.48152 -170.32503 38036 ft 449 kts 246°
2026-04-17 11:21 16.45542 -170.38387 38034 ft 449 kts 246°
2026-04-17 11:21 16.42924 -170.44285 38033 ft 448 kts 246°
2026-04-17 11:22 16.40304 -170.50183 38034 ft 448 kts 246°
2026-04-17 11:22 16.37680 -170.56079 38034 ft 449 kts 246°
2026-04-17 11:23 16.35045 -170.61999 38034 ft 450 kts 246°
2026-04-17 11:23 16.32408 -170.67920 38034 ft 450 kts 246°
2026-04-17 11:24 16.29785 -170.73802 38031 ft 450 kts 246°
2026-04-17 11:24 16.27145 -170.79718 38031 ft 450 kts 246°
2026-04-17 11:25 16.24501 -170.85637 38031 ft 450 kts 246°
2026-04-17 11:25 16.21858 -170.91547 38027 ft 450 kts 247°
2026-04-17 11:26 16.19207 -170.97471 38033 ft 452 kts 247°
2026-04-17 11:26 16.16545 -171.03415 38032 ft 453 kts 247°
2026-04-17 11:27 16.13899 -171.09317 38028 ft 452 kts 247°
2026-04-17 11:27 16.11235 -171.15253 38029 ft 452 kts 247°
2026-04-17 11:28 16.08574 -171.21177 38029 ft 452 kts 247°
2026-04-17 11:28 16.05908 -171.27109 38029 ft 452 kts 247°
2026-04-17 11:29 16.03240 -171.33038 38029 ft 453 kts 247°
2026-04-17 11:29 16.00583 -171.38941 38026 ft 454 kts 247°
2026-04-17 11:30 15.97901 -171.44892 38026 ft 454 kts 247°
2026-04-17 11:30 15.95223 -171.50829 38026 ft 454 kts 247°
2026-04-17 11:31 15.92537 -171.56778 38053 ft 454 kts 247°
2026-04-17 11:31 15.91167 -171.59737 38231 ft 454 kts 246°
2026-04-17 11:31 15.89791 -171.62637 38483 ft 453 kts 246°
2026-04-17 11:32 15.88391 -171.65561 38695 ft 452 kts 246°
2026-04-17 11:32 15.86993 -171.68480 38861 ft 451 kts 246°
2026-04-17 11:32 15.85595 -171.71406 38980 ft 452 kts 246°
2026-04-17 11:32 15.84199 -171.74337 39102 ft 452 kts 246°
2026-04-17 11:33 15.82802 -171.77276 39223 ft 452 kts 246°
2026-04-17 11:33 15.81412 -171.80206 39370 ft 451 kts 246°
2026-04-17 11:33 15.80024 -171.83130 39493 ft 451 kts 246°
2026-04-17 11:33 15.78652 -171.86021 39609 ft 452 kts 246°
2026-04-17 11:34 15.77263 -171.88947 39724 ft 452 kts 246°
2026-04-17 11:34 15.75872 -171.91874 39840 ft 452 kts 246°
2026-04-17 11:34 15.74477 -171.94808 39944 ft 452 kts 246°
2026-04-17 11:34 15.73085 -171.97736 40014 ft 453 kts 246°
2026-04-17 11:35 15.70296 -172.03598 40018 ft 452 kts 246°
2026-04-17 11:35 15.67519 -172.09427 40018 ft 452 kts 246°
2026-04-17 11:36 15.64731 -172.15275 40018 ft 452 kts 246°
2026-04-17 11:36 15.61938 -172.21129 40018 ft 452 kts 246°
2026-04-17 11:37 15.59144 -172.26980 40018 ft 452 kts 246°
2026-04-17 11:37 15.56350 -172.32827 40017 ft 452 kts 246°
2026-04-17 11:38 15.53553 -172.38676 40018 ft 452 kts 246°
2026-04-17 11:38 15.50771 -172.44486 40006 ft 452 kts 246°
2026-04-17 11:39 15.47972 -172.50329 40018 ft 452 kts 246°
2026-04-17 11:39 15.45171 -172.56170 40016 ft 452 kts 246°
2026-04-17 11:40 15.42363 -172.62023 40013 ft 452 kts 246°
2026-04-17 11:40 15.39561 -172.67856 40010 ft 452 kts 246°
2026-04-17 11:41 15.36751 -172.73702 40012 ft 452 kts 246°
2026-04-17 11:41 15.33944 -172.79538 40005 ft 452 kts 247°
2026-04-17 11:42 15.31133 -172.85375 40012 ft 453 kts 247°
2026-04-17 11:42 15.28319 -172.91217 40012 ft 453 kts 247°
2026-04-17 11:43 15.25525 -172.97013 40012 ft 453 kts 247°
2026-04-17 11:43 15.22706 -173.02854 40009 ft 453 kts 247°
2026-04-17 11:44 15.19888 -173.08688 40009 ft 453 kts 247°
2026-04-17 11:44 15.17064 -173.14531 40009 ft 453 kts 247°
2026-04-17 11:45 15.14243 -173.20362 40012 ft 453 kts 247°
2026-04-17 11:45 15.11433 -173.26166 40004 ft 454 kts 247°
2026-04-17 11:46 15.08607 -173.32001 40007 ft 454 kts 247°
2026-04-17 11:46 15.05778 -173.37835 40007 ft 454 kts 247°
2026-04-17 11:47 15.02946 -173.43670 40007 ft 453 kts 247°
2026-04-17 11:47 15.00109 -173.49512 40009 ft 453 kts 247°
2026-04-17 11:48 14.97276 -173.55340 40004 ft 454 kts 247°
2026-04-17 11:48 14.94437 -173.61178 40010 ft 454 kts 247°
2026-04-17 11:49 14.91594 -173.67018 40007 ft 455 kts 247°
2026-04-17 11:49 14.88767 -173.72820 40007 ft 455 kts 247°
2026-04-17 11:50 14.85919 -173.78662 40008 ft 454 kts 247°
2026-04-17 11:50 14.83068 -173.84503 40006 ft 455 kts 247°
2026-04-17 11:51 14.80215 -173.90346 40004 ft 455 kts 247°
2026-04-17 11:51 14.77357 -173.96196 40004 ft 456 kts 247°
2026-04-17 11:52 14.74508 -174.02021 40004 ft 456 kts 247°
2026-04-17 11:52 14.71644 -174.07870 40007 ft 457 kts 247°
2026-04-17 11:53 14.68776 -174.13725 40004 ft 456 kts 247°
2026-04-17 11:53 14.65903 -174.19585 40004 ft 456 kts 247°
2026-04-17 11:54 14.63035 -174.25432 40004 ft 456 kts 247°
2026-04-17 11:54 14.60177 -174.31252 40006 ft 457 kts 247°
2026-04-17 11:55 14.57297 -174.37116 40008 ft 458 kts 247°
2026-04-17 11:55 14.54412 -174.42982 40007 ft 458 kts 247°
2026-04-17 11:56 14.51528 -174.48842 40001 ft 458 kts 247°
2026-04-17 11:56 14.48641 -174.54705 40004 ft 458 kts 246°
2026-04-17 11:57 14.46239 -174.59578 40005 ft 459 kts 246°
2026-04-17 11:57 14.43347 -174.65441 39999 ft 459 kts 246°
2026-04-17 11:58 14.39977 -174.72268 40005 ft 460 kts 247°
2026-04-17 11:58 14.37560 -174.77162 40002 ft 460 kts 247°
2026-04-17 11:59 14.34652 -174.83044 40004 ft 460 kts 247°
2026-04-17 11:59 14.31742 -174.88926 40006 ft 460 kts 247°
2026-04-17 12:00 14.28824 -174.94820 40001 ft 460 kts 247°
2026-04-17 12:00 14.25917 -175.00688 40003 ft 460 kts 247°
2026-04-17 12:01 14.23003 -175.06565 39992 ft 460 kts 247°
2026-04-17 12:01 14.20078 -175.12461 40002 ft 462 kts 247°
2026-04-17 12:02 14.17151 -175.18357 40001 ft 462 kts 247°
2026-04-17 12:02 14.14237 -175.24222 40005 ft 462 kts 246°
2026-04-17 12:03 14.11307 -175.30113 39996 ft 462 kts 246°
2026-04-17 12:03 14.08374 -175.36004 39994 ft 462 kts 246°
2026-04-17 12:04 14.05440 -175.41895 39993 ft 462 kts 246°
2026-04-17 12:04 14.02501 -175.47792 40000 ft 463 kts 247°
2026-04-17 12:05 13.99555 -175.53701 39999 ft 464 kts 247°
2026-04-17 12:05 13.96600 -175.59620 39998 ft 464 kts 246°
2026-04-17 12:06 13.93649 -175.65527 39991 ft 464 kts 246°
2026-04-17 12:06 13.90717 -175.71392 39986 ft 464 kts 246°
2026-04-17 12:07 13.87759 -175.77306 40000 ft 464 kts 246°
2026-04-17 12:07 13.84799 -175.83218 39994 ft 464 kts 246°
2026-04-17 12:08 13.81839 -175.89127 39981 ft 464 kts 246°
2026-04-17 12:08 13.78877 -175.95034 39996 ft 464 kts 246°
2026-04-17 12:09 13.75936 -176.00896 39997 ft 464 kts 246°
2026-04-17 12:09 13.72978 -176.06788 39992 ft 464 kts 246°
2026-04-17 12:10 13.70005 -176.12704 39991 ft 464 kts 246°
2026-04-17 12:10 13.67039 -176.18603 39981 ft 464 kts 246°
2026-04-17 12:11 13.64064 -176.24516 39994 ft 466 kts 246°
2026-04-17 12:12 13.59611 -176.33358 39991 ft 466 kts 246°
2026-04-17 12:12 13.56627 -176.39277 39994 ft 466 kts 246°
2026-04-17 12:13 13.53641 -176.45197 39991 ft 466 kts 246°
2026-04-17 12:13 13.50657 -176.51109 39999 ft 466 kts 246°
2026-04-17 12:14 13.47670 -176.57021 39980 ft 466 kts 246°
2026-04-17 12:14 13.44672 -176.62953 39988 ft 469 kts 246°
2026-04-17 12:15 13.41660 -176.68907 39992 ft 469 kts 246°
2026-04-17 12:15 13.38668 -176.74816 39993 ft 469 kts 246°
2026-04-17 12:16 13.35650 -176.80772 39993 ft 469 kts 246°
2026-04-17 12:16 13.32635 -176.86720 39991 ft 469 kts 246°
2026-04-17 12:17 13.29615 -176.92672 39992 ft 469 kts 246°
2026-04-17 12:17 13.26595 -176.98621 39993 ft 471 kts 246°
2026-04-17 12:18 13.23578 -177.04562 39991 ft 472 kts 246°
2026-04-17 12:18 13.20539 -177.10538 39996 ft 472 kts 246°
2026-04-17 12:19 13.17502 -177.16506 39989 ft 472 kts 246°
2026-04-17 12:19 13.14460 -177.22482 39988 ft 472 kts 246°
2026-04-17 12:20 13.11420 -177.28448 39975 ft 472 kts 246°
2026-04-17 12:20 13.08372 -177.34428 39987 ft 473 kts 246°
2026-04-17 12:21 13.05317 -177.40417 39991 ft 474 kts 246°
2026-04-17 12:21 13.02252 -177.46420 39988 ft 475 kts 246°
2026-04-17 12:22 12.99188 -177.52416 39985 ft 475 kts 246°
2026-04-17 12:22 12.96141 -177.58375 39993 ft 475 kts 246°
2026-04-17 12:23 12.93074 -177.64370 39987 ft 475 kts 246°
2026-04-17 12:23 12.90007 -177.70360 39991 ft 475 kts 246°
2026-04-17 12:24 12.86932 -177.76364 39987 ft 476 kts 246°
2026-04-17 12:24 12.83859 -177.82358 39990 ft 477 kts 246°
2026-04-17 12:25 12.80770 -177.88379 39988 ft 477 kts 246°
2026-04-17 12:25 12.77677 -177.94402 39986 ft 477 kts 246°
2026-04-17 12:26 12.74586 -178.00422 39977 ft 478 kts 246°
2026-04-17 12:26 12.71489 -178.06446 39976 ft 478 kts 246°
2026-04-17 12:27 12.68391 -178.12467 39986 ft 478 kts 246°
2026-04-17 12:27 12.65284 -178.18504 39988 ft 479 kts 246°
2026-04-17 12:28 12.62170 -178.24548 39989 ft 480 kts 246°
2026-04-17 12:28 12.59053 -178.30593 39984 ft 480 kts 246°
2026-04-17 12:29 12.55955 -178.36599 39984 ft 480 kts 246°
2026-04-17 12:29 12.52839 -178.42637 39986 ft 480 kts 246°
2026-04-17 12:30 12.49717 -178.48680 39984 ft 480 kts 246°
2026-04-17 12:30 12.46591 -178.54730 39982 ft 481 kts 246°
2026-04-17 12:31 12.43481 -178.60743 39986 ft 481 kts 246°
2026-04-17 12:31 12.40350 -178.66792 39966 ft 481 kts 246°
2026-04-17 12:32 12.37218 -178.72841 39982 ft 481 kts 245°
2026-04-17 12:32 12.34078 -178.78898 39982 ft 481 kts 245°
2026-04-17 12:33 12.30939 -178.84951 39983 ft 481 kts 245°
2026-04-17 12:33 12.27815 -178.90971 39984 ft 483 kts 245°
2026-04-17 12:34 12.24666 -178.97036 39983 ft 483 kts 245°
2026-04-17 12:34 12.21513 -179.03102 39983 ft 483 kts 245°
2026-04-17 12:35 12.18354 -179.09178 39980 ft 483 kts 245°
2026-04-17 12:35 12.15193 -179.15252 39978 ft 483 kts 245°
2026-04-17 12:37 12.02565 -179.39484 39978 ft 485 kts 245°
2026-04-17 12:38 11.99391 -179.45563 39980 ft 485 kts 245°
2026-04-17 12:38 11.96214 -179.51646 39981 ft 485 kts 245°
2026-04-17 12:39 11.93038 -179.57721 39982 ft 485 kts 245°
2026-04-17 12:39 11.89859 -179.63800 39984 ft 485 kts 245°
2026-04-17 12:40 11.86681 -179.69873 39979 ft 485 kts 245°
2026-04-17 12:40 11.83500 -179.75947 39978 ft 485 kts 245°
2026-04-17 12:41 11.80337 -179.81981 39980 ft 485 kts 245°
2026-04-17 12:41 11.77149 -179.88062 39980 ft 485 kts 245°
2026-04-17 12:42 11.73966 -179.94128 39979 ft 485 kts 245°
2026-04-17 12:42 11.70781 179.99804 39969 ft 485 kts 245°
2026-04-17 12:43 11.67502 179.93811 39975 ft 487 kts 243°
2026-04-17 12:43 11.64095 179.87836 39982 ft 487 kts 243°
2026-04-17 12:44 11.60692 179.81852 39980 ft 487 kts 243°
2026-04-17 12:44 11.57305 179.75849 39973 ft 487 kts 243°
2026-04-17 12:45 11.53932 179.69855 39975 ft 487 kts 243°
2026-04-17 12:45 11.50577 179.63895 39975 ft 487 kts 243°
2026-04-17 12:46 11.47768 179.58909 39978 ft 487 kts 243°
2026-04-17 12:46 11.44384 179.52907 39977 ft 488 kts 243°
2026-04-17 12:47 11.41003 179.46914 39980 ft 488 kts 243°
2026-04-17 12:47 11.37609 179.40903 39980 ft 488 kts 243°
2026-04-17 12:48 11.34220 179.34904 39974 ft 488 kts 243°
2026-04-17 12:48 11.30831 179.28908 39975 ft 488 kts 243°
2026-04-17 12:49 11.27443 179.22917 39966 ft 488 kts 243°
2026-04-17 12:49 11.24076 179.16968 39974 ft 488 kts 243°
2026-04-17 12:50 11.20687 179.10982 39976 ft 488 kts 243°
2026-04-17 12:50 11.17294 179.04994 39974 ft 488 kts 243°
2026-04-17 12:51 11.13898 178.99003 39977 ft 488 kts 243°
2026-04-17 12:51 11.10508 178.93026 39977 ft 488 kts 243°
2026-04-17 12:52 11.09383 178.91044 39977 ft 488 kts 243°
2026-04-17 12:54 11.06590 178.86122 39974 ft 488 kts 243°
2026-04-17 12:54 11.03193 178.80140 39973 ft 488 kts 243°
2026-04-17 12:55 10.99813 178.74193 39973 ft 488 kts 243°
2026-04-17 12:55 10.96412 178.68211 39971 ft 488 kts 243°
2026-04-17 12:56 10.93001 178.62216 39972 ft 488 kts 243°
2026-04-17 12:56 10.89592 178.56226 39974 ft 487 kts 243°
2026-04-17 12:57 10.86218 178.50303 39968 ft 487 kts 243°
2026-04-17 12:57 10.82810 178.44322 39970 ft 488 kts 243°
2026-04-17 12:58 10.79409 178.38357 39972 ft 488 kts 243°
2026-04-17 12:58 10.76004 178.32389 39971 ft 488 kts 243°
2026-04-17 12:59 10.72593 178.26413 39971 ft 488 kts 243°
2026-04-17 12:59 10.69183 178.20443 39968 ft 488 kts 243°
2026-04-17 13:00 10.65773 178.14476 39972 ft 488 kts 243°
2026-04-17 13:00 10.62365 178.08515 39969 ft 488 kts 243°
2026-04-17 13:01 10.58970 178.02580 39973 ft 488 kts 243°
2026-04-17 13:01 10.55552 177.96609 39962 ft 489 kts 243°
2026-04-17 13:02 10.52125 177.90625 39965 ft 489 kts 243°
2026-04-17 13:02 10.48703 177.84655 39966 ft 488 kts 243°
2026-04-17 13:03 10.45283 177.78690 39964 ft 488 kts 243°
2026-04-17 13:03 10.41859 177.72721 39963 ft 488 kts 243°
2026-04-17 13:04 10.38459 177.66796 39965 ft 489 kts 243°
2026-04-17 13:04 10.35035 177.60834 39968 ft 489 kts 243°
2026-04-17 13:05 10.31596 177.54849 39964 ft 489 kts 243°
2026-04-17 13:05 10.28168 177.48888 39968 ft 489 kts 243°
2026-04-17 13:06 10.24734 177.42917 39960 ft 489 kts 243°
2026-04-17 13:06 10.21317 177.36979 39963 ft 489 kts 243°
2026-04-17 13:07 10.17885 177.31019 39963 ft 489 kts 242°
2026-04-17 13:07 10.14441 177.25042 39964 ft 490 kts 242°
2026-04-17 13:08 10.10995 177.19063 39964 ft 490 kts 242°
2026-04-17 13:08 10.07551 177.13093 39964 ft 490 kts 242°
2026-04-17 13:09 10.04106 177.07123 39961 ft 490 kts 242°
2026-04-17 13:09 10.00678 177.01186 39961 ft 490 kts 242°
2026-04-17 13:10 9.97438 176.95112 39961 ft 489 kts 246°
2026-04-17 13:10 9.94428 176.88925 39960 ft 489 kts 246°
2026-04-17 13:11 9.91372 176.82743 39962 ft 490 kts 246°
2026-04-17 13:11 9.88300 176.76574 39960 ft 490 kts 246°
2026-04-17 13:12 9.85239 176.70444 39957 ft 490 kts 246°
2026-04-17 13:12 9.80616 176.61196 39957 ft 490 kts 245°
2026-04-17 13:13 9.77527 176.55022 39961 ft 491 kts 245°
2026-04-17 13:13 9.74435 176.48848 39960 ft 491 kts 245°
2026-04-17 13:14 9.71341 176.42671 39958 ft 491 kts 245°
2026-04-17 13:14 9.68248 176.36499 39957 ft 491 kts 245°
2026-04-17 13:15 9.65151 176.30324 39955 ft 491 kts 245°
2026-04-17 13:15 9.62076 176.24196 39955 ft 491 kts 245°
2026-04-17 13:16 9.58981 176.18030 39949 ft 491 kts 245°
2026-04-17 13:16 9.55881 176.11859 39955 ft 491 kts 245°
2026-04-17 13:17 9.52778 176.05684 39952 ft 492 kts 245°
2026-04-17 13:17 9.49675 175.99513 39952 ft 492 kts 245°
2026-04-17 13:18 9.46564 175.93330 39955 ft 492 kts 245°
2026-04-17 13:18 9.43474 175.87190 39954 ft 492 kts 245°
2026-04-17 13:19 9.40365 175.81016 39952 ft 493 kts 245°
2026-04-17 13:19 9.37247 175.74830 39952 ft 493 kts 245°
2026-04-17 13:20 9.34123 175.68633 39952 ft 494 kts 245°
2026-04-17 13:20 9.30996 175.62434 39952 ft 494 kts 245°
2026-04-17 13:21 9.27890 175.56279 39952 ft 494 kts 245°
2026-04-17 13:21 9.24767 175.50094 39952 ft 494 kts 245°
2026-04-17 13:22 9.21635 175.43894 39952 ft 494 kts 245°
2026-04-17 13:22 9.18502 175.37696 39952 ft 494 kts 245°
2026-04-17 13:23 9.15368 175.31499 39952 ft 494 kts 245°
2026-04-17 13:23 9.12256 175.25350 39949 ft 494 kts 245°
2026-04-17 13:24 9.09127 175.19168 39949 ft 494 kts 245°
2026-04-17 13:24 9.05990 175.12975 39949 ft 494 kts 245°
2026-04-17 13:25 9.02854 175.06786 39949 ft 494 kts 245°
2026-04-17 13:25 8.99718 175.00601 39949 ft 494 kts 245°
2026-04-17 13:26 8.96579 174.94413 39949 ft 494 kts 245°
2026-04-17 13:26 8.93438 174.88223 39950 ft 494 kts 245°
2026-04-17 13:27 8.90315 174.82074 39946 ft 494 kts 245°
2026-04-17 13:27 8.87171 174.75884 39944 ft 494 kts 245°
2026-04-17 13:28 8.84029 174.69702 39947 ft 494 kts 245°
2026-04-17 13:28 8.80887 174.63524 39944 ft 495 kts 245°
2026-04-17 13:29 8.77754 174.57364 39944 ft 495 kts 244°
2026-04-17 13:29 8.74597 174.51163 39944 ft 496 kts 245°
2026-04-17 13:30 8.71439 174.44961 39941 ft 495 kts 244°
2026-04-17 13:30 8.68280 174.38762 39941 ft 496 kts 244°
2026-04-17 13:31 8.65119 174.32561 39941 ft 497 kts 244°
2026-04-17 13:31 8.61953 174.26353 39941 ft 497 kts 244°
2026-04-17 13:32 8.58780 174.20135 39939 ft 498 kts 244°
2026-04-17 13:32 8.55623 174.13950 39938 ft 498 kts 244°
2026-04-17 13:33 8.52446 174.07730 39936 ft 498 kts 244°
2026-04-17 13:33 8.49267 174.01508 39939 ft 498 kts 244°
2026-04-17 13:34 8.46089 173.95293 39939 ft 498 kts 244°
2026-04-17 13:34 8.42909 173.89074 39934 ft 498 kts 244°
2026-04-17 13:35 8.40260 173.83897 39936 ft 499 kts 244°
2026-04-17 13:35 8.37070 173.77666 39935 ft 499 kts 244°
2026-04-17 13:36 8.33879 173.71435 39933 ft 499 kts 244°
2026-04-17 13:36 8.30686 173.65204 39933 ft 499 kts 244°
2026-04-17 13:37 8.27490 173.58969 39935 ft 499 kts 244°
2026-04-17 13:37 8.24299 173.52748 39934 ft 499 kts 244°
2026-04-17 13:38 8.21110 173.46533 39933 ft 498 kts 244°
2026-04-17 13:38 8.17938 173.40353 39934 ft 499 kts 244°
2026-04-17 13:39 8.14748 173.34144 39933 ft 499 kts 244°
2026-04-17 13:39 8.11553 173.27924 39932 ft 499 kts 244°
2026-04-17 13:40 8.08355 173.21703 39933 ft 499 kts 244°
2026-04-17 13:40 8.05159 173.15489 39930 ft 499 kts 244°
2026-04-17 13:41 8.01962 173.09275 39932 ft 498 kts 244°
2026-04-17 13:41 7.98761 173.03056 39933 ft 499 kts 244°
2026-04-17 13:42 7.95565 172.96850 39930 ft 499 kts 244°
2026-04-17 13:42 7.92384 172.90676 39930 ft 498 kts 244°
2026-04-17 13:43 7.89185 172.84469 39928 ft 499 kts 244°
2026-04-17 13:43 7.85983 172.78259 39927 ft 498 kts 244°
2026-04-17 13:44 7.82782 172.72055 39838 ft 495 kts 244°
2026-04-17 13:44 7.81196 172.68982 39218 ft 495 kts 244°
2026-04-17 13:44 7.79594 172.65877 38358 ft 500 kts 243°
2026-04-17 13:45 7.78002 172.62792 37497 ft 502 kts 244°
2026-04-17 13:45 7.76387 172.59666 36675 ft 504 kts 244°
2026-04-17 13:45 7.74766 172.56528 35858 ft 506 kts 244°
2026-04-17 13:45 7.73136 172.53373 35071 ft 507 kts 244°
2026-04-17 13:46 7.71502 172.50212 34288 ft 509 kts 244°
2026-04-17 13:46 7.69845 172.47004 33410 ft 511 kts 244°
2026-04-17 13:46 7.68220 172.43860 32453 ft 514 kts 244°
2026-04-17 13:46 7.66564 172.40657 31465 ft 518 kts 244°
2026-04-17 13:47 7.64893 172.37423 30449 ft 522 kts 244°
2026-04-17 13:47 7.63208 172.34167 29383 ft 526 kts 244°
2026-04-17 13:47 7.61513 172.30892 28421 ft 526 kts 244°
2026-04-17 13:47 7.59822 172.27626 27574 ft 524 kts 244°
2026-04-17 13:48 7.58146 172.24389 26863 ft 519 kts 243°
2026-04-17 13:48 7.56479 172.21170 26151 ft 515 kts 244°
2026-04-17 13:48 7.54827 172.17979 25433 ft 511 kts 243°
2026-04-17 13:48 7.53190 172.14818 24816 ft 506 kts 243°
2026-04-17 13:49 7.51567 172.11686 24158 ft 502 kts 243°
2026-04-17 13:49 7.49972 172.08607 23454 ft 500 kts 243°
2026-04-17 13:49 7.48368 172.05512 22776 ft 494 kts 243°
2026-04-17 13:49 7.46788 172.02465 22059 ft 489 kts 243°
2026-04-17 13:50 7.45216 171.99433 21322 ft 485 kts 243°
2026-04-17 13:50 7.43666 171.96445 20713 ft 479 kts 243°
2026-04-17 13:50 7.42134 171.93492 20064 ft 473 kts 243°
2026-04-17 13:50 7.40615 171.90564 19336 ft 471 kts 242°
2026-04-17 13:51 7.39105 171.87653 18765 ft 464 kts 242°
2026-04-17 13:51 7.37621 171.84795 18253 ft 457 kts 242°
2026-04-17 13:51 7.36167 171.81993 17963 ft 446 kts 242°
2026-04-17 13:51 7.34728 171.79221 17922 ft 445 kts 242°
2026-04-17 13:52 7.33328 171.76525 17481 ft 437 kts 242°
2026-04-17 13:52 7.31915 171.73803 16480 ft 441 kts 242°
2026-04-17 13:52 7.30688 171.70967 15594 ft 443 kts 250°
2026-04-17 13:52 7.29718 171.68031 14909 ft 439 kts 252°
2026-04-17 13:53 7.28794 171.65123 14350 ft 433 kts 252°
2026-04-17 13:53 7.27889 171.62277 14008 ft 421 kts 252°
2026-04-17 13:53 7.27008 171.59518 13746 ft 407 kts 252°
2026-04-17 13:53 7.26152 171.56842 13484 ft 394 kts 252°
2026-04-17 13:54 7.24525 171.51770 12977 ft 369 kts 252°
2026-04-17 13:54 7.23746 171.49344 12730 ft 358 kts 251°
2026-04-17 13:55 7.22265 171.44737 12337 ft 334 kts 252°
2026-04-17 13:55 7.21558 171.42536 12038 ft 328 kts 251°
2026-04-17 13:55 7.20158 171.38185 11165 ft 325 kts 251°
2026-04-17 13:56 7.18775 171.33890 10385 ft 320 kts 251°
2026-04-17 13:56 7.18092 171.31767 10014 ft 317 kts 251°
2026-04-17 13:56 7.17415 171.29664 9561 ft 316 kts 251°
2026-04-17 13:57 7.16745 171.27584 9117 ft 314 kts 251°
2026-04-17 13:57 7.16071 171.25492 8629 ft 314 kts 251°
2026-04-17 13:57 7.14732 171.21337 7804 ft 310 kts 252°
2026-04-17 13:58 7.14068 171.19272 7431 ft 307 kts 251°
2026-04-17 13:58 7.12754 171.15198 6618 ft 304 kts 251°
2026-04-17 13:58 7.12105 171.13184 6220 ft 302 kts 251°
2026-04-17 13:59 7.10367 171.09442 5390 ft 292 kts 220°
2026-04-17 13:59 7.08622 171.08532 5233 ft 271 kts 187°
2026-04-17 13:59 7.06844 171.08619 5121 ft 252 kts 164°
2026-04-17 14:00 7.05179 171.09037 4989 ft 241 kts 161°
2026-04-17 14:00 7.03584 171.09479 4787 ft 235 kts 160°
2026-04-17 14:00 7.02024 171.09918 4672 ft 231 kts 160°
2026-04-17 14:00 7.00415 171.10031 4590 ft 239 kts 191°
2026-04-17 14:01 6.98920 171.09280 4525 ft 243 kts 210°
2026-04-17 14:01 6.97490 171.08358 4463 ft 244 kts 208°
2026-04-17 14:01 6.96061 171.07432 4412 ft 246 kts 217°
2026-04-17 14:01 6.95003 171.06076 4342 ft 249 kts 247°
2026-04-17 14:02 6.94710 171.04380 4281 ft 248 kts 277°
2026-04-17 14:02 6.95305 171.02796 4201 ft 242 kts 311°
2026-04-17 14:02 6.96601 171.01799 4155 ft 231 kts 343°
2026-04-17 14:02 6.98133 171.01621 4094 ft 223 kts 13°
2026-04-17 14:03 6.99521 171.02221 4040 ft 217 kts 41°
2026-04-17 14:03 7.00417 171.03406 3992 ft 213 kts 67°
2026-04-17 14:03 7.00884 171.04819 3924 ft 213 kts 74°
2026-04-17 14:03 7.01273 171.06266 3855 ft 214 kts 75°
2026-04-17 14:04 7.01664 171.07715 3800 ft 214 kts 75°
2026-04-17 14:04 7.02061 171.09156 3746 ft 214 kts 75°
2026-04-17 14:04 7.02323 171.10629 3677 ft 215 kts 89°
2026-04-17 14:04 7.01980 171.12082 3615 ft 217 kts 116°
2026-04-17 14:05 7.00939 171.13180 3556 ft 223 kts 147°
2026-04-17 14:05 6.99429 171.13565 3489 ft 231 kts 179°
2026-04-17 14:05 6.97911 171.13056 3430 ft 240 kts 214°
2026-04-17 14:05 6.96871 171.11754 3390 ft 243 kts 247°
2026-04-17 14:06 6.96359 171.10124 3326 ft 245 kts 255°
2026-04-17 14:06 6.95922 171.08461 3268 ft 246 kts 255°
2026-04-17 14:06 6.95456 171.06799 3205 ft 246 kts 254°
2026-04-17 14:06 6.95024 171.05135 3136 ft 246 kts 262°
2026-04-17 14:07 6.95174 171.03448 3078 ft 241 kts 295°
2026-04-17 14:07 6.96182 171.02169 3014 ft 232 kts 331°
2026-04-17 14:07 6.97660 171.01671 2953 ft 222 kts
2026-04-17 14:07 6.99128 171.02000 2896 ft 214 kts 32°
2026-04-17 14:08 7.00193 171.02994 2824 ft 209 kts 59°
2026-04-17 14:08 7.00741 171.04337 2776 ft 209 kts 73°
2026-04-17 14:08 7.01127 171.05735 2722 ft 210 kts 75°
2026-04-17 14:08 7.01508 171.07155 2656 ft 210 kts 75°
2026-04-17 14:09 7.01896 171.08568 2603 ft 210 kts 75°
2026-04-17 14:09 7.02259 171.09994 2539 ft 211 kts 79°
2026-04-17 14:09 7.02209 171.11461 2473 ft 212 kts 105°
2026-04-17 14:09 7.01439 171.12722 2413 ft 217 kts 135°
2026-04-17 14:10 7.00067 171.13390 2348 ft 226 kts 166°
2026-04-17 14:10 6.98495 171.13209 2289 ft 233 kts 200°
2026-04-17 14:10 6.97256 171.12161 2243 ft 239 kts 238°
2026-04-17 14:10 6.96659 171.10609 2184 ft 240 kts 255°
2026-04-17 14:11 6.96243 171.08981 2112 ft 241 kts 255°
2026-04-17 14:11 6.95812 171.07344 2055 ft 242 kts 255°
2026-04-17 14:11 6.95351 171.05719 1989 ft 241 kts 255°
2026-04-17 14:11 6.95193 171.04056 1918 ft 239 kts 283°
2026-04-17 14:12 6.95896 171.02608 1861 ft 230 kts 318°
2026-04-17 14:12 6.97213 171.01830 1803 ft 220 kts 351°
2026-04-17 14:12 6.98695 171.01861 1745 ft 212 kts 21°
2026-04-17 14:13 7.00573 171.03841 1652 ft 192 kts 71°
2026-04-17 14:13 7.00940 171.05099 1645 ft 185 kts 74°
2026-04-17 14:13 7.01274 171.06340 1635 ft 179 kts 75°
2026-04-17 14:13 7.01591 171.07493 1656 ft 164 kts 75°
2026-04-17 14:14 7.01895 171.08595 1655 ft 163 kts 74°
2026-04-17 14:14 7.02177 171.09703 1645 ft 165 kts 81°
2026-04-17 14:14 7.02369 171.10841 1646 ft 164 kts 77°
2026-04-17 14:14 7.02738 171.11932 1652 ft 164 kts 71°
2026-04-17 14:15 7.03027 171.13036 1648 ft 164 kts 76°
2026-04-17 14:15 7.03297 171.14152 1649 ft 163 kts 76°
2026-04-17 14:15 7.03554 171.15219 1652 ft 151 kts 76°
2026-04-17 14:15 7.03804 171.16217 1646 ft 146 kts 75°
2026-04-17 14:16 7.04057 171.17215 1644 ft 148 kts 75°
2026-04-17 14:16 7.04307 171.18223 1644 ft 149 kts 75°
2026-04-17 14:16 7.04552 171.19218 1453 ft 143 kts 77°
2026-04-17 14:16 7.04780 171.20161 1256 ft 134 kts 76°
2026-04-17 14:17 7.04997 171.21052 1071 ft 130 kts 77°
2026-04-17 14:17 7.05215 171.21946 907 ft 132 kts 77°
2026-04-17 14:17 7.05432 171.22840 732 ft 130 kts 73°
2026-04-17 14:17 7.05647 171.23717 557 ft 128 kts 74°
2026-04-17 14:18 7.05859 171.24590 384 ft 129 kts 78°
2026-04-17 14:18 7.06072 171.25468 204 ft 130 kts 75°
2026-04-17 14:18 7.06292 171.26354 34 ft 131 kts 75°
2026-04-17 14:18 7.06488 171.27174 9 ft 97 kts 76°
2026-04-17 14:19 7.06578 171.27543 8 ft 24 kts 76°
2026-04-17 14:19 7.06619 171.27704 8 ft 23 kts 73°
2026-04-17 14:19 7.06654 171.27840 9 ft 19 kts 81°
2026-04-17 14:19 7.06682 171.27977 7 ft 21 kts 77°
2026-04-17 14:20 7.06750 171.28082 9 ft 9 kts 14°
2026-04-17 14:20 7.06804 171.28086 10 ft 7 kts 19°
2026-04-17 14:20 7.06824 171.28110 11 ft 4 kts 64°
2026-04-17 14:20 7.06838 171.28146 11 ft 6 kts 75°
2026-04-17 14:21 7.06839 171.28156 11 ft 0 kts 78°